Location: Ladysmith
(45.4630°N, 91.1040°W)
Time: 12:11:25
(UTC-06:00)

Amateur Radio Satellites - All Passes

Search period start: 28 January 2015 11:41
Search period end: 29 January 2015 11:41
Location: Ladysmith, 45.4630°N, 91.1040°W

Satellite Date Start Highest point End Downlink Frequencies (MHz)
Time Altitude Azimuth
POPSAT HIP 1 28 Jan 11:43:00 11:44:30 11° 274° (W) 11:45:46 437.405
DUCHIFAT 1 28 Jan 11:46:57 11:47:51 10° 274° (W) 11:48:28 145.980
PHONESAT 2.4 28 Jan 11:46:58 11:50:21 37° 178° (S) 11:53:46 2401.200-2431.200
Oscar 19 28 Jan 11:51:04 11:55:40 34° 67° (ENE) 12:00:20 437.125/150
SO-50 28 Jan 11:52:31 11:56:51 38° 316° (NW) 12:01:19 436.795
UKube-1 28 Jan 12:00:35 12:02:05 11° 301° (WNW) 12:03:22 .
ITAMSAT 1 28 Jan 12:06:14 12:09:39 19° 60° (ENE) 12:13:14 435.822/435.867
50 SAT 28 Jan 12:08:50 12:11:41 18° 295° (WNW) 12:14:24 437.505
TISAT 1 28 Jan 12:11:46 12:16:00 54° 100° (E) 12:20:12 437.305
AIST 2 28 Jan 12:18:35 12:22:45 48° 240° (WSW) 12:26:49 435.215
HUMSAT D 28 Jan 12:24:19 12:25:49 11° 300° (WNW) 12:27:07 437.325/437.525
BEESAT 28 Jan 12:25:06 12:27:05 13° 87° (E) 12:29:21 436.000
ITUPSAT 1 28 Jan 12:28:07 12:30:22 14° 87° (E) 12:32:52 437.325
BEESAT 2 28 Jan 12:29:14 12:32:05 17° 247° (WSW) 12:34:47 435.950
VERMONT LUNAR 28 Jan 12:32:24 12:35:31 30° 192° (SSW) 12:38:38 437.305
ESTCUBE 1 28 Jan 12:37:40 12:41:16 23° 295° (WNW) 12:44:46 437.505/2401.250
AISAT 28 Jan 12:39:43 12:41:23 12° 301° (WNW) 12:42:51 437.250
BEESAT 3 28 Jan 12:46:00 12:47:05 11° 251° (WSW) 12:47:56 437.485
RS-15 28 Jan 12:50:20 13:01:22 57° 42° (NE) 13:12:57 29.354- 29.394
GONETS M04 28 Jan 12:54:11 13:02:55 79° 263° (W) 13:11:34
Gurwin Techsat 1B 28 Jan 12:55:53 13:00:33 33° 66° (ENE) 13:05:19 435.225
SPROUT 28 Jan 13:07:08 13:11:13 39° 290° (WNW) 13:15:15 437.525
DANDE 28 Jan 13:19:33 13:22:03 12° 45° (NE) 13:24:43 436.750
CUBEBUG 1 28 Jan 13:20:44 13:21:30 10° 301° (WNW) 13:22:02 437.445
PCSat 28 Jan 13:23:58 13:29:26 78° 57° (ENE) 13:34:52 145.827
PHONESAT 2.4 28 Jan 13:25:23 13:28:32 27° 195° (SSW) 13:31:40 2401.200-2431.200
Oscar 19 28 Jan 13:30:15 13:35:01 35° 264° (W) 13:39:45 437.125/150
AO-7 28 Jan 13:34:34 13:41:18 29° 53° (NE) 13:48:14 29.400- 29.500
SO-50 28 Jan 13:37:11 13:38:50 11° 339° (NNW) 13:40:23 436.795
ITAMSAT 1 28 Jan 13:43:31 13:48:41 69° 257° (WSW) 13:53:54 435.822/435.867
SWISSCUBE 28 Jan 13:44:48 13:49:37 81° 102° (ESE) 13:54:24 437.505
TISAT 1 28 Jan 13:48:38 13:51:28 17° 297° (WNW) 13:54:11 437.305
HORYU 2 28 Jan 13:50:33 13:54:31 32° 68° (ENE) 13:58:33 437.375
CUSAT 1 28 Jan 13:52:35 13:57:28 21° 56° (NE) 14:01:39 437.405
BEESAT 28 Jan 14:00:50 14:05:38 78° 286° (WNW) 14:10:24 436.000
ITUPSAT 1 28 Jan 14:04:07 14:08:55 74° 286° (WNW) 14:13:42 437.325
VERMONT LUNAR 28 Jan 14:11:29 14:13:02 12° 207° (SSW) 14:14:31 437.305
STARS 28 Jan 14:32:44 14:36:45 33° 96° (E) 14:40:46 437.465
Gurwin Techsat 1B 28 Jan 14:35:37 14:40:31 36° 264° (W) 14:45:23 435.225
KKS-1 28 Jan 14:36:45 14:41:11 54° 100° (E) 14:45:35 437.445
GONETS M04 28 Jan 14:53:19 14:58:27 17° 284° (WNW) 15:03:04
DANDE 28 Jan 15:00:42 15:07:48 59° 72° (ENE) 15:13:05 436.750
RS-15 28 Jan 15:03:02 15:13:53 52° 246° (WSW) 15:25:04 29.354- 29.394
PHONESAT 2.4 28 Jan 15:06:11 15:06:26 10° 210° (SSW) 15:06:35 2401.200-2431.200
PCSat 28 Jan 15:08:50 15:12:16 17° 254° (WSW) 15:15:29 145.827
M-CUBED/EXP-1 PRIME 28 Jan 15:15:07 15:18:02 28° 102° (ESE) 15:21:01 437.505
SWISSCUBE 28 Jan 15:24:19 15:26:55 14° 300° (WNW) 15:29:20 437.505
AO-7 28 Jan 15:25:03 15:33:26 78° 253° (WSW) 15:41:52 29.400- 29.500
HORYU 2 28 Jan 15:27:17 15:31:13 28° 265° (W) 15:35:07 437.375
CUSAT 1 28 Jan 15:34:56 15:41:31 66° 265° (W) 15:46:22 437.405
O/OREOS (USA 219) 28 Jan 15:36:58 15:40:26 23° 103° (ESE) 15:44:00 437.305
BEESAT 28 Jan 15:41:18 15:42:46 11° 303° (WNW) 15:44:00 436.000
JAS-2 28 Jan 15:41:27 15:46:52 65° 73° (ENE) 15:52:02 435.910
Cubesat XI-IV 28 Jan 15:43:26 15:45:32 13° 56° (NE) 15:47:53 437.490
ITUPSAT 1 28 Jan 15:44:54 15:46:04 11° 303° (WNW) 15:46:59 437.325
AUBIESAT-1 28 Jan 15:48:47 15:52:06 71° 108° (ESE) 15:55:28 437.475
CUTE-I 28 Jan 16:02:10 16:05:33 18° 59° (ENE) 16:09:07 437.470
STARS 28 Jan 16:09:21 16:13:09 27° 294° (WNW) 16:16:53 437.465
MOZHAYETS 4 28 Jan 16:09:54 16:13:33 23° 92° (E) 16:17:15
KKS-1 28 Jan 16:14:22 16:17:29 18° 297° (WNW) 16:20:29 437.445
DANDE 28 Jan 16:45:11 16:50:29 23° 279° (W) 16:54:40 436.750
M-CUBED/EXP-1 PRIME 28 Jan 16:50:34 16:52:56 18° 299° (WNW) 16:55:16 437.505
SO-50 28 Jan 17:01:34 17:04:23 15° 28° (NNE) 17:07:18 436.795
O/OREOS (USA 219) 28 Jan 17:15:22 17:19:38 41° 301° (WNW) 17:23:56 437.305
Cubesat XI-IV 28 Jan 17:19:32 17:24:50 76° 73° (ENE) 17:30:13 437.490
AO-7 28 Jan 17:22:38 17:27:49 17° 275° (W) 17:32:29 29.400- 29.500
JAS-2 28 Jan 17:29:01 17:32:35 17° 271° (W) 17:35:49 435.910
CUTE-I 28 Jan 17:39:47 17:45:06 75° 257° (WSW) 17:50:28 437.470
MOZHAYETS 4 28 Jan 17:46:41 17:50:57 39° 290° (WNW) 17:55:11
STRAND 1 28 Jan 17:48:51 17:51:41 15° 88° (E) 17:54:44 437.568
CUBESAT XI-V 28 Jan 17:59:56 18:03:49 26° 93° (E) 18:07:47 437.345
YUBILEINY 28 Jan 18:02:22 18:07:46 19° 78° (ENE) 18:13:36 435.215
HO-68 28 Jan 18:12:31 18:17:27 21° 53° (NE) 18:22:35 435.675
PRISM 28 Jan 18:21:36 18:25:41 55° 101° (E) 18:29:46 437.425
BRITE-PL 28 Jan 18:23:57 18:27:01 16° 59° (ENE) 18:30:24 437.365/2234.400
GOMX 1 28 Jan 18:24:31 18:26:21 12° 56° (NE) 18:28:29 467.674
DOVE 4 28 Jan 18:40:06 18:41:58 12° 57° (ENE) 18:44:05 437.250
SO-50 28 Jan 18:41:08 18:46:00 58° 49° (NE) 18:50:53 436.795
CANX-2 28 Jan 18:47:07 18:49:35 16° 63° (ENE) 18:52:12 2200.000
Cubesat XI-IV 28 Jan 19:02:26 19:05:39 15° 273° (W) 19:08:39 437.490
AAUSAT CUBESAT 2 28 Jan 19:02:33 19:04:21 13° 62° (ENE) 19:06:20 437.432
CUTE 1.7 + AOD 2 28 Jan 19:10:19 19:13:43 24° 67° (ENE) 19:17:11 437.475
STRAND 1 28 Jan 19:26:23 19:31:32 74° 287° (WNW) 19:36:41 437.568
CUBESAT XI-V 28 Jan 19:37:04 19:41:23 37° 291° (WNW) 19:45:42 437.345
SEEDS 28 Jan 19:41:14 19:45:13 41° 71° (ENE) 19:49:15 437.485
UKube-1 28 Jan 19:46:10 19:47:54 12° 60° (ENE) 19:49:49 .
CUBEBUG 2 28 Jan 19:47:46 19:50:41 17° 62° (ENE) 19:53:46 437.445
YUBILEINY 28 Jan 19:54:46 20:03:28 88° 98° (E) 20:12:15 435.215
HO-68 28 Jan 19:57:12 20:04:21 89° 73° (ENE) 20:11:34 435.675
PRISM 28 Jan 19:58:16 20:00:50 16° 297° (WNW) 20:03:17 437.425
GOMX 1 28 Jan 19:58:29 20:03:32 72° 75° (ENE) 20:08:58 467.674
ZACube-1 28 Jan 19:58:44 20:01:13 15° 62° (ENE) 20:03:52 437.345
BRITE-PL 28 Jan 19:59:44 20:04:48 83° 257° (WSW) 20:10:20 437.365/2234.400
DX 1 28 Jan 20:04:40 20:07:43 19° 64° (ENE) 20:10:55 434.975-435.025
CINEMA 3 28 Jan 20:06:06 20:10:39 38° 69° (ENE) 20:15:21 145.822/145.860
COMPASS 1 28 Jan 20:08:30 20:12:42 67° 75° (ENE) 20:16:55 437.405
FUNcube-1 28 Jan 20:10:12 20:13:18 19° 64° (ENE) 20:16:32 145.935
DOVE 4 28 Jan 20:13:48 20:18:51 74° 75° (ENE) 20:24:09 437.250
CANX-2 28 Jan 20:20:53 20:25:08 60° 260° (W) 20:29:24 2200.000
SO-50 28 Jan 20:22:25 20:26:15 22° 247° (WSW) 20:29:57 436.795
AISAT 28 Jan 20:27:09 20:29:20 14° 60° (ENE) 20:31:41 437.250
UWE-3 28 Jan 20:27:46 20:31:54 32° 68° (ENE) 20:36:05 435.000/436.395/437.385
DELFI C3 28 Jan 20:34:24 20:38:18 44° 72° (ENE) 20:42:13 145.870
AAUSAT CUBESAT 2 28 Jan 20:35:19 20:39:32 72° 259° (W) 20:43:45 437.432
Oscar 11 28 Jan 20:44:08 20:48:29 72° 75° (ENE) 20:52:51 145.826/435.025
CUTE 1.7 + AOD 2 28 Jan 20:45:32 20:49:30 36° 263° (W) 20:53:29 437.475
VELOX 1 28 Jan 20:54:14 20:57:43 24° 65° (ENE) 21:01:19 145.980
CUBEBUG 1 28 Jan 21:06:05 21:08:08 14° 61° (ENE) 21:10:23 437.445
STRAND 1 28 Jan 21:08:01 21:09:58 12° 304° (NW) 21:11:40 437.568
SEEDS 28 Jan 21:18:04 21:21:17 20° 269° (W) 21:24:23 437.485
UKube-1 28 Jan 21:19:10 21:23:30 80° 257° (WSW) 21:27:53 .
CUBEBUG 2 28 Jan 21:22:10 21:26:55 68° 259° (W) 21:31:43 437.445
50 SAT 28 Jan 21:22:27 21:26:17 38° 71° (ENE) 21:30:09 437.505
UNISAT 6 28 Jan 21:26:43 21:27:13 10° 85° (E) 21:28:00 437.425
ZACube-1 28 Jan 21:32:28 21:37:05 74° 258° (WSW) 21:41:44 437.345
GOMX 1 28 Jan 21:39:06 21:42:23 16° 275° (W) 21:45:34 467.674
DX 1 28 Jan 21:39:29 21:43:42 47° 261° (W) 21:47:56 434.975-435.025
HUMSAT D 28 Jan 21:40:12 21:44:33 78° 74° (ENE) 21:48:56 437.325/437.525
BRITE-PL 28 Jan 21:42:39 21:44:26 11° 279° (W) 21:45:53 437.365/2234.400
CINEMA 3 28 Jan 21:43:40 21:47:58 29° 267° (W) 21:52:18 145.822/145.860
AIST 1 28 Jan 21:44:07 21:47:57 30° 73° (ENE) 21:51:50
FUNcube-1 28 Jan 21:44:45 21:49:17 56° 260° (W) 21:53:51 145.935
COMPASS 1 28 Jan 21:47:09 21:48:58 12° 273° (W) 21:50:35 437.405
HO-68 28 Jan 21:48:20 21:53:09 18° 273° (W) 21:57:38 435.675
POPSAT HIP 1 28 Jan 21:49:48 21:50:35 11° 86° (E) 21:51:39 437.405
DUCHIFAT 1 28 Jan 21:52:24 21:53:39 11° 87° (E) 21:55:08 145.980
DOVE 4 28 Jan 21:54:11 21:57:19 16° 274° (W) 22:00:18 437.250
YUBILEINY 28 Jan 21:55:02 22:01:42 23° 302° (WNW) 22:08:05 435.215
ISS 28 Jan 21:58:13 22:01:09 31° 141° (SE) 22:04:08 145.825
ANTELSAT 28 Jan 22:00:08 22:03:43 24° 92° (E) 22:07:19 437.575/2403.000
AISAT 28 Jan 22:00:58 22:05:26 75° 257° (WSW) 22:09:56 437.250
ESTCUBE 1 28 Jan 22:02:08 22:06:28 50° 71° (ENE) 22:10:50 437.505/2401.250
UWE-3 28 Jan 22:04:13 22:08:26 31° 266° (W) 22:12:36 435.000/436.395/437.385
TIGRISAT 28 Jan 22:08:04 22:11:54 28° 94° (E) 22:15:42 435.000
DELFI C3 28 Jan 22:11:04 22:13:49 17° 270° (W) 22:16:27 145.870
Oscar 11 28 Jan 22:23:28 22:25:15 12° 273° (W) 22:26:48 145.826/435.025
NANOSAT C BR1 28 Jan 22:25:01 22:28:35 25° 94° (E) 22:32:12 145.865
SPROUT 28 Jan 22:28:15 22:31:37 23° 66° (ENE) 22:35:04 437.525
VELOX 1 28 Jan 22:29:58 22:34:08 39° 262° (W) 22:38:19 145.980
QB50P2 28 Jan 22:38:44 22:42:43 36° 97° (E) 22:46:42 145.880/145.840
CUBEBUG 1 28 Jan 22:39:40 22:44:00 73° 257° (WSW) 22:48:24 437.445
QB50P1 28 Jan 22:48:10 22:52:19 44° 98° (E) 22:56:26 145.935-145.965
50 SAT 28 Jan 22:58:24 23:01:35 20° 268° (W) 23:04:40 437.505
UNISAT 6 28 Jan 23:00:16 23:04:48 84° 283° (WNW) 23:09:10 437.425
POLYITAN 1 28 Jan 23:02:30 23:06:49 64° 101° (E) 23:11:06 437.675
BUGSAT 1 28 Jan 23:02:40 23:06:51 49° 99° (E) 23:11:01 437.445
TISAT 1 28 Jan 23:06:17 23:10:25 54° 72° (ENE) 23:14:36 437.305
SWISSCUBE 28 Jan 23:18:13 23:21:01 16° 61° (ENE) 23:23:59 437.505
HUMSAT D 28 Jan 23:19:40 23:21:00 11° 274° (W) 23:22:04 437.325/437.525
AIST 1 28 Jan 23:21:55 23:25:34 26° 270° (W) 23:29:09
POPSAT HIP 1 28 Jan 23:22:49 23:27:10 79° 285° (WNW) 23:31:28 437.405
DUCHIFAT 1 28 Jan 23:25:48 23:30:08 74° 285° (WNW) 23:34:24 145.980
BEESAT 28 Jan 23:33:24 23:36:49 20° 63° (ENE) 23:40:21 436.000
ISS 28 Jan 23:34:22 23:37:35 48° 339° (NNW) 23:40:49 145.825
ANTELSAT 28 Jan 23:36:32 23:40:41 36° 291° (WNW) 23:44:41 437.575/2403.000
ITUPSAT 1 28 Jan 23:36:50 23:40:22 21° 63° (ENE) 23:44:00 437.325
ESTCUBE 1 28 Jan 23:40:33 23:43:42 18° 270° (W) 23:46:42 437.505/2401.250
TIGRISAT 28 Jan 23:44:42 23:48:42 31° 292° (WNW) 23:52:33 435.000
NANOSAT C BR1 29 Jan 00:00:39 00:04:31 33° 292° (WNW) 00:08:21 145.865
GONETS M04 29 Jan 00:03:20 00:09:58 26° 81° (E) 00:16:52
SPROUT 29 Jan 00:03:30 00:07:32 38° 263° (W) 00:11:36 437.525
O/OREOS (USA 219) 29 Jan 00:06:43 00:07:40 11° 42° (NE) 00:08:49 437.305
QB50P2 29 Jan 00:15:00 00:18:30 24° 294° (WNW) 00:21:55 145.880/145.840
QB50P1 29 Jan 00:24:45 00:27:56 20° 295° (WNW) 00:31:02 145.935-145.965
BUGSAT 1 29 Jan 00:39:03 00:42:03 18° 296° (WNW) 00:44:55 437.445
UNISAT 6 29 Jan 00:39:47 00:40:53 11° 302° (WNW) 00:41:46 437.425
POLYITAN 1 29 Jan 00:39:48 00:42:19 15° 298° (WNW) 00:44:40 437.675
TISAT 1 29 Jan 00:44:04 00:46:39 15° 271° (W) 00:49:07 437.305
SWISSCUBE 29 Jan 00:53:40 00:58:25 70° 258° (WSW) 01:03:11 437.505
AUBIESAT-1 29 Jan 01:06:47 01:08:53 15° 60° (ENE) 01:11:02 437.475
BEESAT 29 Jan 01:09:41 01:14:21 53° 260° (W) 01:19:02 436.000
ISS 29 Jan 01:11:43 01:14:36 27° 359° (N) 01:17:29 145.825
Gurwin Techsat 1B 29 Jan 01:13:01 01:13:13 10° 83° (E) 01:13:49 435.225
ITUPSAT 1 29 Jan 01:13:21 01:17:59 50° 261° (W) 01:22:38 437.325
STARS 29 Jan 01:31:53 01:36:00 39° 69° (ENE) 01:40:11 437.465
KKS-1 29 Jan 01:37:00 01:41:26 65° 73° (ENE) 01:45:55 437.445
Oscar 19 29 Jan 01:38:57 01:44:08 71° 102° (ESE) 01:49:15 437.125/150
O/OREOS (USA 219) 29 Jan 01:43:32 01:48:08 65° 63° (ENE) 01:52:42 437.305
ITAMSAT 1 29 Jan 01:54:18 01:59:05 36° 96° (E) 02:03:54 435.822/435.867
GONETS M04 29 Jan 01:57:19 02:06:05 74° 281° (WNW) 02:14:50
M-CUBED/EXP-1 PRIME 29 Jan 02:06:01 02:10:02 70° 70° (ENE) 02:13:43 437.505
AIST 2 29 Jan 02:19:34 02:22:44 21° 114° (ESE) 02:26:02 435.215
BEESAT 2 29 Jan 02:24:41 02:28:42 52° 121° (ESE) 02:32:47 435.950
DANDE 29 Jan 02:33:10 02:37:35 16° 78° (ENE) 02:42:34 436.750
BEESAT 3 29 Jan 02:39:03 02:43:09 82° 124° (SE) 02:47:21 437.485
AUBIESAT-1 29 Jan 02:39:40 02:43:35 53° 254° (WSW) 02:47:12 437.475
ISS 29 Jan 02:48:28 02:51:39 41° 19° (NNE) 02:54:49 145.825
Gurwin Techsat 1B 29 Jan 02:48:54 02:54:15 77° 103° (ESE) 02:59:35 435.225
CUSAT 1 29 Jan 03:01:20 03:08:00 29° 85° (E) 03:14:57 437.405
STARS 29 Jan 03:09:04 03:12:40 23° 267° (W) 03:16:11 437.465
MOZHAYETS 4 29 Jan 03:14:06 03:18:01 29° 68° (ENE) 03:22:00
HORYU 2 29 Jan 03:15:55 03:20:13 46° 99° (E) 03:24:29 437.375
KKS-1 29 Jan 03:16:08 03:18:37 14° 272° (W) 03:20:54 437.445
Oscar 19 29 Jan 03:19:32 03:22:59 18° 300° (WNW) 03:26:17 437.125/150
RS-15 29 Jan 03:20:40 03:28:02 22° 102° (ESE) 03:35:58 29.354- 29.394
O/OREOS (USA 219) 29 Jan 03:24:26 03:27:04 15° 260° (W) 03:29:31 437.305
AO-7 29 Jan 03:24:39 03:31:50 32° 94° (E) 03:39:07 29.400- 29.500
ITAMSAT 1 29 Jan 03:33:54 03:38:34 33° 294° (WNW) 03:43:10 435.822/435.867
M-CUBED/EXP-1 PRIME 29 Jan 03:44:41 03:45:25 10° 265° (W) 03:45:55 437.505
AIST 2 29 Jan 03:56:56 04:01:05 48° 311° (NW) 04:05:18 435.215
GONETS M04 29 Jan 03:59:11 04:04:52 18° 306° (NW) 04:10:07
BEESAT 2 29 Jan 04:03:50 04:07:13 23° 320° (NW) 04:10:33 435.950
PCSat 29 Jan 04:07:51 04:12:57 45° 115° (ESE) 04:18:09 145.827
YUBILEINY 29 Jan 04:09:01 04:10:58 11° 45° (NE) 04:13:31 435.215
DANDE 29 Jan 04:11:34 04:19:46 68° 96° (E) 04:28:21 436.750
BEESAT 3 29 Jan 04:19:04 04:21:53 17° 325° (NW) 04:24:38 437.485
ISS 29 Jan 04:25:02 04:28:11 41° 217° (SW) 04:31:18 145.825
Gurwin Techsat 1B 29 Jan 04:30:12 04:33:41 18° 301° (WNW) 04:37:00 435.225
JAS-2 29 Jan 04:31:28 04:36:53 47° 99° (E) 04:42:56 435.910
CUSAT 1 29 Jan 04:42:12 04:50:29 74° 283° (WNW) 04:58:52 437.405
MOZHAYETS 4 29 Jan 04:51:05 04:55:13 32° 265° (W) 04:59:20
HORYU 2 29 Jan 04:53:17 04:56:38 20° 296° (WNW) 04:59:51 437.375
CUBESAT XI-V 29 Jan 05:05:39 05:09:41 32° 68° (ENE) 05:13:49 437.345
STRAND 1 29 Jan 05:06:26 05:10:42 28° 65° (ENE) 05:15:04 437.568
PRISM 29 Jan 05:14:16 05:18:17 55° 72° (ENE) 05:22:19 437.425
AO-7 29 Jan 05:16:59 05:25:13 64° 295° (WNW) 05:33:22 29.400- 29.500
RS-15 29 Jan 05:28:00 05:38:56 85° 123° (ESE) 05:50:00 29.354- 29.394
Cubesat XI-IV 29 Jan 05:35:08 05:39:31 25° 92° (E) 05:44:00 437.490
AIST 2 29 Jan 05:39:17 05:40:47 11° 333° (NNW) 05:42:12 435.215
PCSat 29 Jan 05:51:39 05:56:34 33° 314° (NW) 06:01:28 145.827
CUTE-I 29 Jan 05:54:51 05:59:48 37° 96° (E) 06:04:46 437.470
DANDE 29 Jan 05:56:21 06:03:55 34° 296° (WNW) 06:11:28 436.750
YUBILEINY 29 Jan 06:02:14 06:10:41 50° 72° (ENE) 06:19:12 435.215
JAS-2 29 Jan 06:17:08 06:21:54 29° 294° (WNW) 06:26:58 435.910
CUSAT 1 29 Jan 06:29:02 06:35:03 20° 304° (NW) 06:40:39 437.405
CUBESAT XI-V 29 Jan 06:43:09 06:47:11 29° 266° (W) 06:51:11 437.345
STRAND 1 29 Jan 06:44:58 06:49:47 41° 263° (W) 06:54:36 437.568
PRISM 29 Jan 06:51:56 06:54:13 14° 271° (W) 06:56:20 437.425
AO-7 29 Jan 07:11:24 07:16:36 18° 316° (NW) 07:21:28 29.400- 29.500
Cubesat XI-IV 29 Jan 07:14:44 07:19:54 48° 291° (WNW) 07:25:02 437.490
HO-68 29 Jan 07:24:43 07:28:07 14° 84° (E) 07:31:57 435.675
CUTE-I 29 Jan 07:35:02 07:39:51 34° 294° (WNW) 07:44:36 437.470
PCSat 29 Jan 07:41:01 07:41:48 10° 339° (NNW) 07:42:27 145.827
RS-15 29 Jan 07:42:37 07:52:41 39° 331° (NNW) 08:02:54 29.354- 29.394
GOMX 1 29 Jan 07:59:21 08:03:21 21° 88° (E) 08:07:23 467.674
YUBILEINY 29 Jan 07:59:23 08:07:26 41° 273° (W) 08:15:20 435.215
BRITE-PL 29 Jan 08:02:48 08:07:51 32° 92° (E) 08:12:48 437.365/2234.400
CANX-2 29 Jan 08:05:00 08:08:05 20° 91° (E) 08:11:16 2200.000
DOVE 4 29 Jan 08:12:15 08:15:53 19° 88° (E) 08:19:34 437.250
AAUSAT CUBESAT 2 29 Jan 08:17:51 08:20:18 16° 89° (E) 08:22:53 437.432
UNISAT 6 29 Jan 08:26:51 08:29:27 15° 61° (ENE) 08:32:13 437.425
CUTE 1.7 + AOD 2 29 Jan 08:28:41 08:32:29 32° 95° (E) 08:36:17 437.475
Oscar 11 29 Jan 08:31:52 08:32:59 11° 86° (E) 08:34:20 145.826/435.025
VERMONT LUNAR 29 Jan 08:35:40 08:37:53 16° 156° (SSE) 08:40:10 437.305
POPSAT HIP 1 29 Jan 08:44:59 08:46:39 12° 61° (ENE) 08:48:32 437.405
DUCHIFAT 1 29 Jan 08:47:29 08:49:20 13° 61° (ENE) 08:51:21 145.980
SEEDS 29 Jan 08:59:12 09:03:22 59° 100° (E) 09:07:30 437.485
ANTELSAT 29 Jan 09:01:06 09:05:11 30° 68° (ENE) 09:09:18 437.575/2403.000
BEESAT 2 29 Jan 09:05:37 09:07:40 13° 31° (NNE) 09:09:49 435.950
UKube-1 29 Jan 09:06:11 09:08:35 15° 89° (E) 09:11:07 .
TIGRISAT 29 Jan 09:08:41 09:12:56 35° 69° (ENE) 09:17:12 435.000
HO-68 29 Jan 09:09:59 09:17:11 77° 105° (ESE) 09:24:22 435.675
CUBEBUG 2 29 Jan 09:12:19 09:15:54 23° 91° (E) 09:19:29 437.445
BEESAT 3 29 Jan 09:19:21 09:22:08 17° 35° (NE) 09:24:58 437.485
NANOSAT C BR1 29 Jan 09:20:07 09:23:39 26° 67° (ENE) 09:27:18 145.865
ZACube-1 29 Jan 09:20:21 09:23:29 19° 90° (E) 09:26:38 437.345
HUMSAT D 29 Jan 09:25:11 09:26:15 11° 86° (E) 09:27:35 437.325/437.525
COMPASS 1 29 Jan 09:25:49 09:30:01 85° 284° (WNW) 09:34:11 437.405
DX 1 29 Jan 09:26:03 09:29:38 24° 94° (E) 09:33:17 434.975-435.025
FUNcube-1 29 Jan 09:31:59 09:35:35 24° 92° (E) 09:39:11 145.935
PHONESAT 2.4 29 Jan 09:33:36 09:36:25 21° 160° (SSE) 09:39:16 2401.200-2431.200
QB50P2 29 Jan 09:33:58 09:37:53 36° 70° (ENE) 09:41:53 145.880/145.840
CINEMA 3 29 Jan 09:36:03 09:40:56 66° 100° (E) 09:45:36 145.822/145.860
GOMX 1 29 Jan 09:36:33 09:41:56 58° 288° (WNW) 09:47:04 467.674
CANX-2 29 Jan 09:40:16 09:44:15 39° 289° (WNW) 09:48:11 2200.000
BRITE-PL 29 Jan 09:41:06 09:46:27 41° 292° (WNW) 09:51:35 437.365/2234.400
QB50P1 29 Jan 09:43:08 09:47:12 45° 71° (ENE) 09:51:20 145.935-145.965
DELFI C3 29 Jan 09:47:31 09:51:31 57° 100° (E) 09:55:30 145.870
DOVE 4 29 Jan 09:48:58 09:54:09 59° 288° (WNW) 09:59:04 437.250
AISAT 29 Jan 09:50:50 09:53:55 18° 91° (E) 09:57:08 437.250
UWE-3 29 Jan 09:51:54 09:56:18 47° 98° (E) 10:00:33 435.000/436.395/437.385
AAUSAT CUBESAT 2 29 Jan 09:52:17 09:56:20 50° 288° (WNW) 10:00:20 437.432
BUGSAT 1 29 Jan 09:55:05 09:59:00 45° 71° (ENE) 10:03:01 437.445
POLYITAN 1 29 Jan 09:57:42 10:01:57 65° 74° (ENE) 10:06:16 437.675
RS-15 29 Jan 09:59:54 10:09:03 28° 5° (N) 10:18:30 29.354- 29.394
UNISAT 6 29 Jan 10:01:01 10:05:45 74° 258° (WSW) 10:10:28 437.425
CUTE 1.7 + AOD 2 29 Jan 10:04:49 10:08:20 25° 293° (WNW) 10:11:45 437.475
Oscar 11 29 Jan 10:05:29 10:09:49 76° 284° (WNW) 10:14:06 145.826/435.025
GONETS M04 29 Jan 10:10:05 10:14:19 15° 50° (NE) 10:19:02
VERMONT LUNAR 29 Jan 10:12:17 10:15:28 33° 173° (S) 10:18:41 437.305
AIST 1 29 Jan 10:17:30 10:20:01 16° 86° (E) 10:22:41
POPSAT HIP 1 29 Jan 10:17:43 10:22:01 79° 257° (WSW) 10:26:21 437.405
VELOX 1 29 Jan 10:18:25 10:22:29 33° 96° (E) 10:26:34 145.980
DUCHIFAT 1 29 Jan 10:20:24 10:24:40 75° 259° (WSW) 10:28:59 145.980
CUBEBUG 1 29 Jan 10:27:26 10:30:28 18° 90° (E) 10:33:37 437.445
50 SAT 29 Jan 10:34:39 10:38:35 45° 98° (E) 10:42:28 437.505
SEEDS 29 Jan 10:36:19 10:38:47 15° 297° (WNW) 10:41:07 437.485
ANTELSAT 29 Jan 10:37:40 10:41:57 33° 265° (W) 10:46:11 437.575/2403.000
SO-50 29 Jan 10:37:52 10:42:26 77° 124° (SE) 10:47:12 436.795
AIST 2 29 Jan 10:38:32 10:42:23 31° 44° (NE) 10:46:12 435.215
UKube-1 29 Jan 10:40:53 10:45:12 59° 288° (WNW) 10:49:28 .
BEESAT 2 29 Jan 10:42:33 10:46:44 66° 52° (NE) 10:50:51 435.950
TIGRISAT 29 Jan 10:45:37 10:49:44 28° 266° (W) 10:53:47 435.000
CUBEBUG 2 29 Jan 10:48:30 10:52:49 40° 290° (WNW) 10:56:59 437.445
NANOSAT C BR1 29 Jan 10:55:37 10:59:27 32° 264° (W) 11:03:19 145.865
ZACube-1 29 Jan 10:55:52 11:00:10 45° 289° (WNW) 11:04:18 437.345
BEESAT 3 29 Jan 10:56:39 11:00:50 81° 236° (WSW) 11:04:57 437.485
HUMSAT D 29 Jan 10:58:26 11:02:42 73° 285° (WNW) 11:06:52 437.325/437.525
HO-68 29 Jan 10:58:40 11:04:18 25° 304° (NW) 11:09:46 435.675
DX 1 29 Jan 11:01:58 11:06:01 35° 291° (WNW) 11:10:00 434.975-435.025
FUNcube-1 29 Jan 11:07:59 11:12:04 35° 291° (WNW) 11:16:00 145.935
QB50P2 29 Jan 11:10:31 11:13:58 23° 267° (W) 11:17:21 145.880/145.840
PCSat 29 Jan 11:11:01 11:14:05 15° 31° (NNE) 11:17:16 145.827
PHONESAT 2.4 29 Jan 11:11:09 11:14:31 37° 177° (S) 11:17:55 2401.200-2431.200
CINEMA 3 29 Jan 11:14:25 11:17:38 17° 299° (WNW) 11:20:37 145.822/145.860
QB50P1 29 Jan 11:20:18 11:23:23 18° 269° (W) 11:26:21 145.935-145.965
Oscar 19 29 Jan 11:20:46 11:24:18 19° 61° (ENE) 11:27:59 437.125/150
DELFI C3 29 Jan 11:24:06 11:26:23 14° 297° (WNW) 11:28:30 145.870
AISAT 29 Jan 11:26:30 11:30:53 49° 289° (WNW) 11:35:14 437.250
UWE-3 29 Jan 11:29:11 11:32:32 20° 296° (WNW) 11:35:42 435.000/436.395/437.385
ESTCUBE 1 29 Jan 11:29:18 11:33:51 82° 101° (E) 11:38:24 437.505/2401.250
BUGSAT 1 29 Jan 11:32:02 11:34:49 17° 270° (W) 11:37:30 437.445
POLYITAN 1 29 Jan 11:36:17 11:38:26 13° 272° (W) 11:40:23 437.675
